Location: Champignolles
(47.0543°N, 4.5663°E)
Time: 23:41:38
(UTC+00:00)

N. Korean satellite - Pass Details

Date: 16 December 2021
Orbit: 447 x 491 km, 97.3° (Epoch: 21 January)

Event Time Altitude Azimuth Distance (km) Brightness Sun altitude
Rises 05:19:51 0° 8° (N) 2,463 10.1 -19.7°
Enters shadow 05:20:41 - 7° (N) 2,107 9.7 -19.6°
Exits shadow 05:28:23 11° 209° (SSW) 1,520 8.9 -18.3°
Drops below altitude 10° 05:28:33 10° 209° (SSW) 1,588 9.0 -18.3°
Sets 05:30:37 0° 204° (SSW) 2,463 10.1 -18.0°
